Port Lavaca, TX

2:56 AM CST on February 14, 2016 (GMT -0600)
Port Lavaca

Weather History for KPKV - December, 2012

Change the Weather History Date:

Monday, December 10, 2012

  Actual Average (KVCT) Record (KVCT)
Temperature  
Mean Temperature 55 °F 56 °F  
Max Temperature 71 °F 67 °F 88 °F (1939)
Min Temperature 39 °F 45 °F 22 °F (1978)
Degree Days  
Heating Degree Days 10 10  
Month to date heating degree days 92  
Since 1 July heating degree days 255  
Cooling Degree Days 0 1  
Month to date cooling degree days 10  
Year to date cooling degree days 3133  
Growing Degree Days 5 (Base 50)    
Moisture  
Dew Point 35 °F    
Average Humidity 59    
Maximum Humidity 94    
Minimum Humidity 36    
Precipitation  
Precipitation 0.18 in 0.07 in 0.97 in (1964)
Month to date precipitation 0.79  
Year to date precipitation 39.70  
Snow  
Snow 0.00 in - - ()
Month to date snowfall  
Since 1 July snowfall  
Snow Depth -    
Sea Level Pressure  
Sea Level Pressure 30.02 in    
Wind  
Wind Speed 16 mph (North)    
Max Wind Speed 31 mph    
Max Gust Speed 40 mph    
Visibility 10 miles    
Events Rain    
T = Trace of Precipitation, MM = Missing Value Source: NWS Daily Summary

Daily Weather History Graph

Daily Weather History Graph

Search for Another Location

Airport or City:

Trip Planner

Search our weather history database for the weather conditions in past years. The results will help you decide how hot, cold, wet, or windy it might be!

Date:

Astronomy

Dec. 10, 2012 Rise Set
Actual Time 7:09 AM CST 5:30 PM CST
Civil Twilight 6:43 AM CST 5:56 PM CST
Nautical Twilight 6:13 AM CST 6:25 PM CST
Astronomical Twilight 5:44 AM CST 6:54 PM CST
Moon 4:02 AM CST (12/10) 3:13 PM CST (12/10)
Length of Visible Light 11h 13m
Length of Day
10h 21m
Waning Crescent, 10% of the Moon is Illuminated
Dec 10
Waning Crescent
Dec 13
New
Dec 19
First Quarter
Dec 28
Full
Jan 4
Last Quarter

Hourly Weather History & Observations

Time (CST) Temp. Windchill Dew Point Humidity Pressure Visibility Wind Dir Wind Speed Gust Speed Precip Events Conditions
12:15 AM 71.6 °F - 69.8 °F 94% 29.82 in 10.0 mi SSW 6.9 mph - N/A   Overcast
12:55 AM 71.6 °F - 69.8 °F 94% 29.82 in 5.0 mi SW 9.2 mph - 0.17 in Rain Light Rain
1:15 AM 59.0 °F - 55.4 °F 88% 29.84 in 10.0 mi North 24.2 mph 31.1 mph N/A   Overcast
1:35 AM 57.2 °F - 53.6 °F 88% 29.85 in 10.0 mi North 17.3 mph - N/A   Overcast
1:55 AM 57.2 °F - 53.6 °F 88% 29.85 in 10.0 mi North 18.4 mph 23.0 mph N/A Rain Rain
2:15 AM 55.4 °F - 53.6 °F 94% 29.87 in 7.0 mi North 17.3 mph 24.2 mph 0.01 in Rain Light Rain
2:55 AM 55.4 °F - 51.8 °F 88% 29.87 in 10.0 mi North 10.4 mph - 0.01 in   Light Drizzle
3:15 AM 55.4 °F - 51.8 °F 88% 29.87 in 10.0 mi North 17.3 mph 23.0 mph N/A   Overcast
3:35 AM 55.4 °F - 51.8 °F 88% 29.87 in 10.0 mi NNW 18.4 mph 21.9 mph N/A   Overcast
3:55 AM 55.4 °F - 50.0 °F 82% 29.88 in 10.0 mi North 17.3 mph 24.2 mph N/A   Overcast
4:15 AM 55.4 °F - 50.0 °F 82% 29.89 in 10.0 mi North 15.0 mph 26.5 mph N/A   Overcast
4:35 AM 55.4 °F - 50.0 °F 82% 29.90 in 10.0 mi North 17.3 mph 23.0 mph N/A   Overcast
4:55 AM 53.6 °F - 48.2 °F 82% 29.90 in 10.0 mi North 24.2 mph 32.2 mph N/A   Overcast
5:15 AM 53.6 °F - 46.4 °F 77% 29.92 in 10.0 mi North 25.3 mph 32.2 mph N/A   Overcast
5:35 AM 51.8 °F - 44.6 °F 76% 29.94 in 10.0 mi North 23.0 mph 32.2 mph N/A   Overcast
5:55 AM 51.8 °F - 41.0 °F 67% 29.96 in 10.0 mi North 21.9 mph 39.1 mph N/A   Overcast
6:15 AM 50.0 °F - 33.8 °F 54% 29.98 in 10.0 mi North 31.1 mph 40.3 mph N/A   Overcast
6:35 AM 46.4 °F 37.4 °F 32.0 °F 57% 30.00 in - North 28.8 mph 34.5 mph N/A   Overcast
6:55 AM 46.4 °F 38.5 °F 32.0 °F 57% 30.01 in - North 21.9 mph 34.5 mph N/A   Overcast
7:15 AM 46.4 °F 39.2 °F 32.0 °F 57% 30.03 in - North 18.4 mph 29.9 mph N/A   Overcast
7:35 AM 46.4 °F 39.2 °F 30.2 °F 53% 30.03 in - North 18.4 mph 26.5 mph N/A   Overcast
8:15 AM 44.6 °F 35.5 °F 28.4 °F 53% 30.05 in - North 25.3 mph 33.4 mph N/A   Overcast
8:35 AM 44.6 °F 35.7 °F 28.4 °F 53% 30.05 in - North 24.2 mph 28.8 mph N/A   Overcast
8:55 AM 44.6 °F 36.1 °F 28.4 °F 53% 30.05 in - North 21.9 mph 32.2 mph N/A   Overcast
9:15 AM 44.6 °F 36.9 °F 30.2 °F 57% 30.06 in - North 18.4 mph 25.3 mph N/A   Overcast
9:35 AM 46.4 °F 38.5 °F 28.4 °F 50% 30.06 in - North 21.9 mph 27.6 mph N/A   Overcast
9:55 AM 46.4 °F 38.3 °F 26.6 °F 46% 30.07 in - North 23.0 mph 29.9 mph N/A   Overcast
10:15 AM 46.4 °F 38.1 °F 24.8 °F 43% 30.08 in - North 24.2 mph 28.8 mph N/A   Overcast
10:35 AM 46.4 °F 38.3 °F 24.8 °F 43% 30.08 in - North 23.0 mph 28.8 mph N/A   Overcast
10:55 AM 48.2 °F - 26.6 °F 43% 30.08 in - NNW 21.9 mph 28.8 mph N/A   Overcast
11:15 AM 46.4 °F 38.5 °F 23.0 °F 40% 30.09 in - North 21.9 mph 28.8 mph N/A   Overcast
11:55 AM 48.2 °F - 24.8 °F 40% 30.08 in - NNW 23.0 mph 28.8 mph N/A   Overcast
12:15 PM 48.2 °F - 24.8 °F 40% 30.08 in - North 16.1 mph 23.0 mph N/A   Overcast
12:35 PM 50.0 °F - 26.6 °F 40% 30.07 in - North 16.1 mph - N/A   Overcast
12:55 PM 50.0 °F - 28.4 °F 43% 30.06 in - North 18.4 mph 23.0 mph N/A   Overcast
1:15 PM 51.8 °F - 28.4 °F 41% 30.06 in - North 19.6 mph - N/A   Overcast
1:35 PM 51.8 °F - 28.4 °F 41% 30.05 in - NNW 19.6 mph - N/A   Overcast
1:55 PM 51.8 °F - 28.4 °F 41% 30.05 in - North 18.4 mph 25.3 mph N/A   Overcast
2:15 PM 51.8 °F - 28.4 °F 41% 30.04 in - North 12.7 mph 18.4 mph N/A   Overcast
2:35 PM 53.6 °F - 28.4 °F 38% 30.04 in - NNW 20.7 mph - N/A   Scattered Clouds
2:55 PM 55.4 °F - 28.4 °F 36% 30.03 in - North 13.8 mph 34.5 mph N/A   Clear
3:15 PM 55.4 °F - 28.4 °F 36% 30.03 in - North 13.8 mph 31.1 mph N/A   Clear
3:55 PM 55.4 °F - 28.4 °F 36% 30.04 in - North 5.8 mph 27.6 mph N/A   Clear
4:15 PM 53.6 °F - 28.4 °F 38% 30.03 in - NNW 16.1 mph 24.2 mph N/A   Clear
4:35 PM 53.6 °F - 28.4 °F 38% 30.03 in - North 4.6 mph - N/A   Clear
4:55 PM 51.8 °F - 30.2 °F 44% 30.04 in - Calm Calm - N/A   Clear
5:15 PM 50.0 °F - 30.2 °F 47% 30.04 in - North 3.5 mph - N/A   Clear
5:35 PM 50.0 °F - 30.2 °F 47% 30.05 in - Calm Calm - N/A   Clear
5:55 PM 46.4 °F 41.9 °F 30.2 °F 53% 30.06 in 10.0 mi North 9.2 mph - N/A   Clear
6:15 PM 46.4 °F 42.4 °F 30.2 °F 53% 30.06 in 10.0 mi North 8.1 mph - N/A   Clear
6:35 PM 46.4 °F 41.9 °F 30.2 °F 53% 30.07 in 10.0 mi North 9.2 mph - N/A   Clear
6:55 PM 44.6 °F 40.7 °F 30.2 °F 57% 30.08 in 10.0 mi North 6.9 mph - N/A   Clear
7:15 PM 42.8 °F 38.6 °F 30.2 °F 61% 30.10 in 10.0 mi North 6.9 mph - N/A   Clear
7:35 PM 42.8 °F 38.6 °F 30.2 °F 61% 30.10 in 10.0 mi North 6.9 mph - N/A   Clear
7:55 PM 41.0 °F 37.1 °F 32.0 °F 70% 30.11 in 10.0 mi North 5.8 mph - N/A   Clear
8:15 PM 41.0 °F 37.1 °F 32.0 °F 70% 30.11 in 10.0 mi North 5.8 mph - N/A   Clear
8:35 PM 41.0 °F 37.1 °F 32.0 °F 70% 30.11 in 10.0 mi North 5.8 mph - N/A   Clear
10:15 PM 41.0 °F 35.2 °F 30.2 °F 65% 30.12 in 10.0 mi North 9.2 mph - N/A   Clear
10:35 PM 39.2 °F 33.6 °F 30.2 °F 70% 30.12 in 10.0 mi North 8.1 mph - N/A   Clear
10:55 PM 39.2 °F 33.0 °F 30.2 °F 70% 30.13 in 10.0 mi North 9.2 mph - N/A   Clear
11:15 PM 39.2 °F 32.5 °F 28.4 °F 65% 30.13 in 10.0 mi North 10.4 mph - N/A   Clear
11:35 PM 41.0 °F 34.3 °F 28.4 °F 61% 30.13 in - North 11.5 mph - N/A   Clear
11:55 PM 41.0 °F 34.7 °F 28.4 °F 61% 30.14 in - North 10.4 mph - N/A   Clear